Time,TemperatureF,DewpointF,PressureIn,WindDirection,WindDirectionDegrees,WindSpeedMPH,WindSpeedGustMPH,Humidity,HourlyPrecipIn,Conditions,Clouds,dailyrainin,SoftwareType,DateUTC
2017-12-14 00:00:00,45.1,32.0,30.42,South,180,1.1,2.0,60,0.00,,,0.00,meteobridge,2017-12-14 08:00:00,
2017-12-14 00:05:00,45.0,32.4,30.41,SSE,149,0.0,2.0,61,0.00,,,0.00,meteobridge,2017-12-14 08:05:00,
2017-12-14 00:10:00,44.8,32.5,30.42,SSW,195,2.0,2.0,62,0.00,,,0.00,meteobridge,2017-12-14 08:10:00,
2017-12-14 00:15:00,45.1,32.0,30.41,SE,128,0.0,4.0,60,0.00,,,0.00,meteobridge,2017-12-14 08:15:00,
2017-12-14 00:20:00,45.5,32.0,30.41,North,0,2.0,10.0,59,0.00,,,0.00,meteobridge,2017-12-14 08:20:00,
2017-12-14 00:25:00,46.0,32.5,30.41,North,0,3.1,6.0,59,0.00,,,0.00,meteobridge,2017-12-14 08:25:00,
2017-12-14 00:30:00,46.0,32.5,30.41,North,0,2.0,9.0,59,0.00,,,0.00,meteobridge,2017-12-14 08:30:00,
2017-12-14 00:35:00,46.0,32.5,30.42,WSW,248,2.0,2.0,59,0.00,,,0.00,meteobridge,2017-12-14 08:35:00,
2017-12-14 00:45:00,45.7,32.5,30.42,ESE,117,0.0,1.0,60,0.00,,,0.00,meteobridge,2017-12-14 08:45:00,
2017-12-14 00:50:00,45.7,32.2,30.42,SSE,154,0.0,4.0,59,0.00,,,0.00,meteobridge,2017-12-14 08:50:00,
2017-12-14 00:55:00,45.5,32.4,30.41,South,176,2.0,2.0,60,0.00,,,0.00,meteobridge,2017-12-14 08:55:00,
2017-12-14 01:00:00,45.5,32.0,30.42,North,7,2.0,2.0,59,0.00,,,0.00,meteobridge,2017-12-14 09:00:00,
2017-12-14 01:03:00,45.5,32.4,30.42,North,4,5.4,5.4,60,0.00,,,0.00,meteobridge,2017-12-14 09:03:00,
2017-12-14 01:08:00,45.5,32.0,30.41,ENE,75,0.0,2.0,59,0.00,,,0.00,meteobridge,2017-12-14 09:08:00,
2017-12-14 01:13:00,45.5,32.0,30.41,North,0,2.0,4.0,59,0.00,,,0.00,meteobridge,2017-12-14 09:13:00,
2017-12-14 01:18:00,45.3,32.2,30.41,North,0,0.0,2.0,60,0.00,,,0.00,meteobridge,2017-12-14 09:18:00,
2017-12-14 01:23:00,45.0,31.5,30.42,ENE,65,2.0,4.0,59,0.00,,,0.00,meteobridge,2017-12-14 09:23:00,
2017-12-14 01:28:00,44.6,31.6,30.41,SSW,195,0.0,4.0,60,0.00,,,0.00,meteobridge,2017-12-14 09:28:00,
2017-12-14 01:33:00,44.2,31.6,30.41,SSW,196,0.0,2.0,61,0.00,,,0.00,meteobridge,2017-12-14 09:33:00,
2017-12-14 01:38:00,44.1,31.5,30.41,SSW,202,0.0,6.0,61,0.00,,,0.00,meteobridge,2017-12-14 09:38:00,
2017-12-14 01:43:00,43.9,31.6,30.41,ENE,69,0.0,3.0,62,0.00,,,0.00,meteobridge,2017-12-14 09:43:00,
2017-12-14 01:45:00,43.9,32.2,30.40,ENE,69,0.0,1.0,63,0.00,,,0.00,meteobridge,2017-12-14 09:45:00,
2017-12-14 01:50:00,43.7,31.5,30.41,North,7,1.1,3.0,62,0.00,,,0.00,meteobridge,2017-12-14 09:50:00,
2017-12-14 01:55:00,43.7,32.0,30.40,SE,142,0.0,3.0,63,0.00,,,0.00,meteobridge,2017-12-14 09:55:00,
2017-12-14 02:00:00,43.5,31.8,30.40,SSW,197,1.1,3.0,63,0.00,,,0.00,meteobridge,2017-12-14 10:00:00,
2017-12-14 02:05:00,43.9,31.6,30.40,SE,144,0.0,3.0,62,0.00,,,0.00,meteobridge,2017-12-14 10:05:00,
2017-12-14 02:10:00,43.9,31.3,30.40,SSE,158,0.0,1.0,61,0.00,,,0.00,meteobridge,2017-12-14 10:10:00,
2017-12-14 02:15:00,43.9,31.6,30.40,ESE,106,1.1,3.0,62,0.00,,,0.00,meteobridge,2017-12-14 10:15:00,
2017-12-14 02:20:00,43.7,31.5,30.40,NE,49,1.1,2.0,62,0.00,,,0.00,meteobridge,2017-12-14 10:20:00,
2017-12-14 02:25:00,43.5,31.3,30.39,SE,128,0.0,4.0,62,0.00,,,0.00,meteobridge,2017-12-14 10:25:00,
2017-12-14 02:30:00,43.7,31.5,30.39,East,89,0.0,5.0,62,0.00,,,0.00,meteobridge,2017-12-14 10:30:00,
2017-12-14 02:34:00,43.7,31.1,30.40,West,265,2.0,4.0,61,0.00,,,0.00,meteobridge,2017-12-14 10:34:00,
2017-12-14 02:35:00,43.7,31.1,30.40,NE,42,4.3,5.0,61,0.00,,,0.00,meteobridge,2017-12-14 10:35:00,
2017-12-14 02:40:00,43.9,30.9,30.39,North,0,1.1,4.0,60,0.00,,,0.00,meteobridge,2017-12-14 10:40:00,
2017-12-14 02:45:00,43.9,31.3,30.39,ENE,76,1.1,4.0,61,0.00,,,0.00,meteobridge,2017-12-14 10:45:00,
2017-12-14 02:50:00,44.1,31.5,30.38,North,0,4.3,6.0,61,0.00,,,0.00,meteobridge,2017-12-14 10:50:00,
2017-12-14 02:55:00,44.2,31.3,30.38,NNE,16,0.0,4.0,60,0.00,,,0.00,meteobridge,2017-12-14 10:55:00,
2017-12-14 03:00:00,44.2,31.6,30.38,SE,141,0.0,5.0,61,0.00,,,0.00,meteobridge,2017-12-14 11:00:00,
2017-12-14 03:04:00,44.4,31.5,30.38,North,0,0.0,1.0,60,0.00,,,0.00,meteobridge,2017-12-14 11:04:00,
2017-12-14 03:09:00,44.1,31.5,30.39,SSE,158,0.0,1.0,61,0.00,,,0.00,meteobridge,2017-12-14 11:09:00,
2017-12-14 03:11:00,43.9,31.3,30.38,SSE,158,0.0,1.0,61,0.00,,,0.00,meteobridge,2017-12-14 11:11:00,
2017-12-14 03:16:00,43.7,31.1,30.38,North,0,4.3,4.3,61,0.00,,,0.00,meteobridge,2017-12-14 11:16:00,
2017-12-14 03:21:00,43.7,31.1,30.38,NNW,348,1.1,5.0,61,0.00,,,0.00,meteobridge,2017-12-14 11:21:00,
2017-12-14 03:26:00,44.1,31.1,30.37,North,7,0.0,9.0,60,0.00,,,0.00,meteobridge,2017-12-14 11:26:00,
2017-12-14 03:31:00,44.2,31.3,30.37,North,0,7.4,7.4,60,0.00,,,0.00,meteobridge,2017-12-14 11:31:00,
2017-12-14 03:36:00,44.2,31.3,30.37,NNE,16,0.0,6.0,60,0.00,,,0.00,meteobridge,2017-12-14 11:36:00,
2017-12-14 03:41:00,44.1,31.1,30.37,North,0,0.0,6.0,60,0.00,,,0.00,meteobridge,2017-12-14 11:41:00,
2017-12-14 03:46:00,44.2,30.7,30.36,NNE,25,5.4,7.0,59,0.00,,,0.00,meteobridge,2017-12-14 11:46:00,
2017-12-14 03:51:00,44.2,30.7,30.36,North,355,3.1,5.0,59,0.00,,,0.00,meteobridge,2017-12-14 11:51:00,
2017-12-14 03:56:00,44.2,30.7,30.36,North,355,2.0,2.0,59,0.00,,,0.00,meteobridge,2017-12-14 11:56:00,
2017-12-14 03:59:00,44.2,30.7,30.36,North,0,3.1,15.0,59,0.00,,,0.00,meteobridge,2017-12-14 11:59:00,
2017-12-14 04:04:00,44.2,31.3,30.37,North,0,8.5,13.0,60,0.00,,,0.00,meteobridge,2017-12-14 12:04:00,
2017-12-14 04:09:00,44.4,30.9,30.37,North,0,2.0,12.0,59,0.00,,,0.00,meteobridge,2017-12-14 12:09:00,
2017-12-14 04:14:00,44.4,30.9,30.37,ENE,68,0.0,3.0,59,0.00,,,0.00,meteobridge,2017-12-14 12:14:00,
2017-12-14 04:19:00,44.2,30.7,30.37,ENE,76,0.0,11.0,59,0.00,,,0.00,meteobridge,2017-12-14 12:19:00,
2017-12-14 04:22:00,44.2,30.7,30.37,North,0,1.1,5.0,59,0.00,,,0.00,meteobridge,2017-12-14 12:22:00,
2017-12-14 04:24:00,44.2,30.7,30.37,NE,38,0.0,4.0,59,0.00,,,0.00,meteobridge,2017-12-14 12:24:00,
2017-12-14 04:29:00,44.1,31.1,30.37,North,0,2.0,3.0,60,0.00,,,0.00,meteobridge,2017-12-14 12:29:00,
2017-12-14 04:34:00,43.9,30.9,30.37,North,0,2.0,4.0,60,0.00,,,0.00,meteobridge,2017-12-14 12:34:00,
2017-12-14 04:39:00,43.9,30.9,30.37,SSW,199,0.0,10.0,60,0.00,,,0.00,meteobridge,2017-12-14 12:39:00,
2017-12-14 04:44:00,43.9,30.9,30.37,NNW,348,2.0,10.0,60,0.00,,,0.00,meteobridge,2017-12-14 12:44:00,
2017-12-14 04:49:00,43.9,30.6,30.37,North,10,1.1,6.0,59,0.00,,,0.00,meteobridge,2017-12-14 12:49:00,
2017-12-14 04:54:00,44.1,30.7,30.37,NNE,21,3.1,3.1,59,0.00,,,0.00,meteobridge,2017-12-14 12:54:00,
2017-12-14 05:00:00,43.9,30.9,30.36,NE,42,3.1,3.1,60,0.00,,,0.00,meteobridge,2017-12-14 13:00:00,
2017-12-14 05:05:00,43.9,30.6,30.36,North,0,3.1,13.0,59,0.00,,,0.00,meteobridge,2017-12-14 13:05:00,
2017-12-14 05:10:00,43.7,30.7,30.36,North,4,5.4,5.4,60,0.00,,,0.00,meteobridge,2017-12-14 13:10:00,
2017-12-14 05:15:00,43.5,30.6,30.37,North,0,1.1,3.0,60,0.00,,,0.00,meteobridge,2017-12-14 13:15:00,
2017-12-14 05:20:00,43.7,30.4,30.37,North,0,0.0,4.0,59,0.00,,,0.00,meteobridge,2017-12-14 13:20:00,
2017-12-14 05:25:00,43.9,30.6,30.36,North,8,1.1,6.0,59,0.00,,,0.00,meteobridge,2017-12-14 13:25:00,
2017-12-14 05:30:00,43.5,30.6,30.36,North,353,1.1,10.0,60,0.00,,,0.00,meteobridge,2017-12-14 13:30:00,
2017-12-14 05:35:00,43.5,30.6,30.36,NNE,31,2.0,3.0,60,0.00,,,0.00,meteobridge,2017-12-14 13:35:00,
2017-12-14 05:40:00,43.5,30.6,30.36,North,8,3.1,14.0,60,0.00,,,0.00,meteobridge,2017-12-14 13:40:00,
2017-12-14 05:45:00,43.9,30.6,30.36,NNW,343,3.1,15.0,59,0.00,,,0.00,meteobridge,2017-12-14 13:45:00,
2017-12-14 05:50:00,43.9,30.6,30.36,North,0,3.1,9.0,59,0.00,,,0.00,meteobridge,2017-12-14 13:50:00,
2017-12-14 05:51:00,43.9,30.6,30.36,North,0,1.1,5.0,59,0.00,,,0.00,meteobridge,2017-12-14 13:51:00,
2017-12-14 05:56:00,43.7,30.7,30.35,SSW,212,2.0,2.0,60,0.00,,,0.00,meteobridge,2017-12-14 13:56:00,
2017-12-14 06:01:00,43.7,30.7,30.35,North,3,0.0,5.0,60,0.00,,,0.00,meteobridge,2017-12-14 14:01:00,
2017-12-14 06:06:00,43.9,30.9,30.36,SE,137,2.0,4.0,60,0.00,,,0.00,meteobridge,2017-12-14 14:06:00,
2017-12-14 06:11:00,43.9,30.6,30.35,North,358,0.0,5.0,59,0.00,,,0.00,meteobridge,2017-12-14 14:11:00,
2017-12-14 06:16:00,43.9,30.9,30.35,North,0,0.0,5.0,60,0.00,,,0.00,meteobridge,2017-12-14 14:16:00,
2017-12-14 06:22:00,43.9,30.9,30.36,NNE,25,1.1,3.0,60,0.00,,,0.00,meteobridge,2017-12-14 14:22:00,
2017-12-14 06:27:00,43.5,30.6,30.36,North,0,5.4,7.0,60,0.00,,,0.00,meteobridge,2017-12-14 14:27:00,
2017-12-14 06:32:00,43.7,30.7,30.36,NE,47,2.0,5.0,60,0.00,,,0.00,meteobridge,2017-12-14 14:32:00,
2017-12-14 06:35:00,43.9,30.6,30.36,West,274,0.0,6.0,59,0.00,,,0.00,meteobridge,2017-12-14 14:35:00,
2017-12-14 06:39:00,43.9,30.6,30.36,East,86,0.0,2.0,59,0.00,,,0.00,meteobridge,2017-12-14 14:39:00,
2017-12-14 06:44:00,43.7,30.4,30.36,North,0,3.1,7.0,59,0.00,,,0.00,meteobridge,2017-12-14 14:44:00,
2017-12-14 06:49:00,43.7,30.4,30.36,North,0,3.1,4.0,59,0.00,,,0.00,meteobridge,2017-12-14 14:49:00,
2017-12-14 06:54:00,43.7,30.7,30.37,North,0,1.1,7.0,60,0.00,,,0.00,meteobridge,2017-12-14 14:54:00,
2017-12-14 06:59:00,43.7,30.4,30.36,ENE,61,5.4,16.0,59,0.00,,,0.00,meteobridge,2017-12-14 14:59:00,
2017-12-14 07:04:00,43.9,30.6,30.35,WSW,243,2.0,10.0,59,0.00,,,0.00,meteobridge,2017-12-14 15:04:00,
2017-12-14 07:09:00,43.9,30.6,30.36,North,358,0.0,3.0,59,0.00,,,0.00,meteobridge,2017-12-14 15:09:00,
2017-12-14 07:14:00,43.5,30.2,30.36,ENE,62,0.0,6.0,59,0.00,,,0.00,meteobridge,2017-12-14 15:14:00,
2017-12-14 07:19:00,43.3,30.0,30.37,ESE,102,3.1,5.0,59,0.00,,,0.00,meteobridge,2017-12-14 15:19:00,
2017-12-14 07:24:00,43.3,30.4,30.37,NNE,32,0.0,2.0,60,0.00,,,0.00,meteobridge,2017-12-14 15:24:00,
2017-12-14 07:29:00,43.2,30.2,30.37,NE,39,1.1,5.0,60,0.00,,,0.00,meteobridge,2017-12-14 15:29:00,
2017-12-14 07:34:00,43.2,29.8,30.37,NE,34,1.1,7.0,59,0.00,,,0.00,meteobridge,2017-12-14 15:34:00,
2017-12-14 07:39:00,43.3,30.0,30.37,North,358,1.1,9.0,59,0.00,,,0.00,meteobridge,2017-12-14 15:39:00,
2017-12-14 07:44:00,43.2,29.8,30.37,ESE,111,0.0,5.0,59,0.00,,,0.00,meteobridge,2017-12-14 15:44:00,
2017-12-14 07:49:00,43.2,30.2,30.37,North,0,1.1,3.0,60,0.00,,,0.00,meteobridge,2017-12-14 15:49:00,
2017-12-14 07:54:00,42.8,29.8,30.37,South,171,0.0,3.0,60,0.00,,,0.00,meteobridge,2017-12-14 15:54:00,
2017-12-14 07:59:00,42.8,29.5,30.37,NE,38,2.0,4.0,59,0.00,,,0.00,meteobridge,2017-12-14 15:59:00,
2017-12-14 08:04:00,42.6,29.7,30.37,SE,135,0.0,6.0,60,0.00,,,0.00,meteobridge,2017-12-14 16:04:00,
2017-12-14 08:09:00,42.8,29.5,30.36,SE,130,3.1,9.0,59,0.00,,,0.00,meteobridge,2017-12-14 16:09:00,
2017-12-14 08:14:00,42.8,29.8,30.37,NNW,348,0.0,5.0,60,0.00,,,0.00,meteobridge,2017-12-14 16:14:00,
2017-12-14 08:19:00,42.8,29.8,30.37,North,0,5.4,5.4,60,0.00,,,0.00,meteobridge,2017-12-14 16:19:00,
2017-12-14 08:25:00,42.6,29.7,30.37,ENE,59,0.0,2.0,60,0.00,,,0.00,meteobridge,2017-12-14 16:25:00,
2017-12-14 08:30:00,42.4,29.5,30.37,East,87,0.0,5.0,60,0.00,,,0.00,meteobridge,2017-12-14 16:30:00,
2017-12-14 08:35:00,42.4,29.5,30.36,South,186,3.1,4.0,60,0.00,,,0.00,meteobridge,2017-12-14 16:35:00,
2017-12-14 08:40:00,42.6,30.2,30.37,North,0,3.1,4.0,61,0.00,,,0.00,meteobridge,2017-12-14 16:40:00,
2017-12-14 08:44:00,42.6,29.7,30.37,ENE,66,0.0,7.0,60,0.00,,,0.00,meteobridge,2017-12-14 16:44:00,
2017-12-14 08:45:00,42.6,29.7,30.37,ENE,66,0.0,7.0,60,0.00,,,0.00,meteobridge,2017-12-14 16:45:00,
2017-12-14 08:50:00,43.0,29.7,30.37,North,358,0.0,11.0,59,0.00,,,0.00,meteobridge,2017-12-14 16:50:00,
2017-12-14 08:55:00,43.2,29.8,30.37,SW,223,0.0,4.0,59,0.00,,,0.00,meteobridge,2017-12-14 16:55:00,
2017-12-14 08:58:00,43.2,29.8,30.37,SSW,209,0.0,4.0,59,0.00,,,0.00,meteobridge,2017-12-14 16:58:00,
2017-12-14 09:02:00,43.2,29.8,30.37,South,178,0.0,3.0,59,0.00,,,0.00,meteobridge,2017-12-14 17:02:00,
2017-12-14 09:03:00,43.2,29.8,30.37,South,178,0.0,1.0,59,0.00,,,0.00,meteobridge,2017-12-14 17:03:00,
2017-12-14 09:08:00,43.2,29.8,30.37,NE,54,1.1,6.0,59,0.00,,,0.00,meteobridge,2017-12-14 17:08:00,
2017-12-14 09:13:00,43.2,29.8,30.37,NE,39,0.0,10.0,59,0.00,,,0.00,meteobridge,2017-12-14 17:13:00,
2017-12-14 09:18:00,43.3,30.0,30.36,North,0,0.0,11.0,59,0.00,,,0.00,meteobridge,2017-12-14 17:18:00,
2017-12-14 09:23:00,43.3,29.5,30.36,North,0,5.4,5.4,58,0.00,,,0.00,meteobridge,2017-12-14 17:23:00,
2017-12-14 09:28:00,43.7,29.8,30.36,North,6,1.1,6.0,58,0.00,,,0.00,meteobridge,2017-12-14 17:28:00,
2017-12-14 09:30:00,43.7,29.8,30.36,North,7,5.4,7.0,58,0.00,,,0.00,meteobridge,2017-12-14 17:30:00,
2017-12-14 09:33:00,43.9,30.0,30.37,NE,41,4.3,5.0,58,0.00,,,0.00,meteobridge,2017-12-14 17:33:00,
2017-12-14 09:38:00,43.9,30.0,30.37,North,7,5.4,5.4,58,0.00,,,0.00,meteobridge,2017-12-14 17:38:00,
2017-12-14 09:43:00,44.1,30.2,30.37,NE,55,0.0,1.0,58,0.00,,,0.00,meteobridge,2017-12-14 17:43:00,
2017-12-14 09:48:00,44.1,30.7,30.36,NE,55,0.0,1.0,59,0.00,,,0.00,meteobridge,2017-12-14 17:48:00,
2017-12-14 09:53:00,44.2,30.4,30.37,SE,142,1.1,2.0,58,0.00,,,0.00,meteobridge,2017-12-14 17:53:00,
2017-12-14 09:58:00,44.2,30.4,30.37,ENE,62,0.0,3.0,58,0.00,,,0.00,meteobridge,2017-12-14 17:58:00,
2017-12-14 10:03:00,44.4,30.2,30.37,ENE,58,2.0,3.0,57,0.00,,,0.00,meteobridge,2017-12-14 18:03:00,
2017-12-14 10:08:00,44.6,30.4,30.37,ENE,63,2.0,4.0,57,0.00,,,0.00,meteobridge,2017-12-14 18:08:00,
2017-12-14 10:13:00,44.8,30.6,30.37,NW,324,0.0,4.0,57,0.00,,,0.00,meteobridge,2017-12-14 18:13:00,
2017-12-14 10:18:00,45.5,30.7,30.37,North,8,2.0,6.0,56,0.00,,,0.00,meteobridge,2017-12-14 18:18:00,
2017-12-14 10:23:00,45.7,30.9,30.37,East,96,2.0,7.0,56,0.00,,,0.00,meteobridge,2017-12-14 18:23:00,
2017-12-14 10:28:00,45.9,30.6,30.37,NNE,13,2.0,3.0,55,0.00,,,0.00,meteobridge,2017-12-14 18:28:00,
2017-12-14 10:33:00,46.0,31.3,30.37,SSW,200,2.0,6.0,56,0.00,,,0.00,meteobridge,2017-12-14 18:33:00,
2017-12-14 10:38:00,46.0,31.6,30.36,NNE,32,2.0,4.0,57,0.00,,,0.00,meteobridge,2017-12-14 18:38:00,
2017-12-14 10:43:00,46.4,31.6,30.36,SSW,209,0.0,5.0,56,0.00,,,0.00,meteobridge,2017-12-14 18:43:00,
2017-12-14 10:48:00,46.6,30.7,30.35,North,3,1.1,1.1,54,0.00,,,0.00,meteobridge,2017-12-14 18:48:00,
2017-12-14 10:53:00,46.8,30.9,30.34,ENE,71,0.0,9.0,54,0.00,,,0.00,meteobridge,2017-12-14 18:53:00,
2017-12-14 10:59:00,46.6,30.7,30.35,ENE,59,0.0,7.0,54,0.00,,,0.00,meteobridge,2017-12-14 18:59:00,
2017-12-14 11:04:00,46.4,30.7,30.35,North,0,0.0,3.0,54,0.00,,,0.00,meteobridge,2017-12-14 19:04:00,
2017-12-14 11:07:00,46.4,31.1,30.35,WNW,288,1.1,1.1,55,0.00,,,0.00,meteobridge,2017-12-14 19:07:00,
2017-12-14 11:12:00,46.4,31.1,30.35,NE,35,1.1,4.0,55,0.00,,,0.00,meteobridge,2017-12-14 19:12:00,
2017-12-14 11:17:00,46.4,31.1,30.34,North,0,2.0,5.0,55,0.00,,,0.00,meteobridge,2017-12-14 19:17:00,
2017-12-14 11:22:00,46.4,31.1,30.34,West,275,0.0,2.0,55,0.00,,,0.00,meteobridge,2017-12-14 19:22:00,
2017-12-14 11:27:00,46.4,31.1,30.34,North,0,4.3,5.0,55,0.00,,,0.00,meteobridge,2017-12-14 19:27:00,
2017-12-14 11:32:00,46.4,30.7,30.33,NW,321,0.0,10.0,54,0.00,,,0.00,meteobridge,2017-12-14 19:32:00,
2017-12-14 11:37:00,46.4,31.1,30.33,SE,127,0.0,4.0,55,0.00,,,0.00,meteobridge,2017-12-14 19:37:00,
2017-12-14 11:42:00,46.2,30.9,30.33,NNE,24,0.0,7.0,55,0.00,,,0.00,meteobridge,2017-12-14 19:42:00,
2017-12-14 11:45:00,46.2,30.9,30.33,WNW,290,0.0,13.0,55,0.00,,,0.00,meteobridge,2017-12-14 19:45:00,
2017-12-14 11:50:00,46.4,31.1,30.33,North,0,1.1,10.0,55,0.00,,,0.00,meteobridge,2017-12-14 19:50:00,
2017-12-14 11:55:00,46.6,31.6,30.32,NNE,25,0.0,3.0,56,0.00,,,0.00,meteobridge,2017-12-14 19:55:00,
2017-12-14 12:00:00,46.9,31.1,30.32,West,261,0.0,4.0,54,0.00,,,0.00,meteobridge,2017-12-14 20:00:00,
2017-12-14 12:05:00,47.1,31.8,30.32,North,7,0.0,5.0,55,0.00,,,0.00,meteobridge,2017-12-14 20:05:00,
2017-12-14 12:10:00,47.1,31.3,30.32,NNE,18,0.0,3.0,54,0.00,,,0.00,meteobridge,2017-12-14 20:10:00,
2017-12-14 12:15:00,47.1,30.9,30.31,North,358,1.1,9.0,53,0.00,,,0.00,meteobridge,2017-12-14 20:15:00,
2017-12-14 12:21:00,47.1,31.8,30.32,North,0,4.3,4.3,55,0.00,,,0.00,meteobridge,2017-12-14 20:21:00,
2017-12-14 12:26:00,47.1,31.3,30.32,North,354,8.5,9.0,54,0.00,,,0.00,meteobridge,2017-12-14 20:26:00,
2017-12-14 12:29:00,47.1,31.3,30.32,North,0,2.0,4.0,54,0.00,,,0.00,meteobridge,2017-12-14 20:29:00,
2017-12-14 12:31:00,47.1,30.9,30.32,North,3,0.0,7.0,53,0.00,,,0.00,meteobridge,2017-12-14 20:31:00,
2017-12-14 12:36:00,47.3,31.5,30.31,NNE,24,1.1,9.0,54,0.00,,,0.00,meteobridge,2017-12-14 20:36:00,
2017-12-14 12:40:00,47.3,32.0,30.31,NNE,24,0.0,1.0,55,0.00,,,0.00,meteobridge,2017-12-14 20:40:00,
2017-12-14 12:46:00,47.3,31.5,30.30,North,4,0.0,2.0,54,0.00,,,0.00,meteobridge,2017-12-14 20:46:00,
2017-12-14 12:51:00,47.7,31.3,30.30,North,0,3.1,4.0,53,0.00,,,0.00,meteobridge,2017-12-14 20:51:00,
2017-12-14 12:56:00,47.8,31.5,30.29,North,0,1.1,10.0,53,0.00,,,0.00,meteobridge,2017-12-14 20:56:00,
2017-12-14 13:01:00,48.0,31.6,30.29,North,0,4.3,4.3,53,0.00,,,0.00,meteobridge,2017-12-14 21:01:00,
2017-12-14 13:06:00,48.0,31.6,30.30,NNE,18,0.0,2.0,53,0.00,,,0.00,meteobridge,2017-12-14 21:06:00,
2017-12-14 13:11:00,47.8,32.0,30.30,NNE,20,0.0,0.0,54,0.00,,,0.00,meteobridge,2017-12-14 21:11:00,
2017-12-14 13:16:00,47.8,31.5,30.30,NNW,338,3.1,3.1,53,0.00,,,0.00,meteobridge,2017-12-14 21:16:00,
2017-12-14 13:21:00,47.8,31.5,30.30,North,0,4.3,4.3,53,0.00,,,0.00,meteobridge,2017-12-14 21:21:00,
2017-12-14 13:26:00,47.8,32.0,30.29,NNE,27,0.0,2.0,54,0.00,,,0.00,meteobridge,2017-12-14 21:26:00,
2017-12-14 13:31:00,47.7,32.4,30.29,East,89,0.0,1.0,55,0.00,,,0.00,meteobridge,2017-12-14 21:31:00,
2017-12-14 13:36:00,47.7,32.4,30.29,East,89,0.0,0.0,55,0.00,,,0.00,meteobridge,2017-12-14 21:36:00,
2017-12-14 13:41:00,47.7,32.7,30.29,South,172,0.0,3.0,56,0.00,,,0.00,meteobridge,2017-12-14 21:41:00,
2017-12-14 13:46:00,47.7,31.8,30.29,North,0,3.1,6.0,54,0.00,,,0.00,meteobridge,2017-12-14 21:46:00,
2017-12-14 13:51:00,47.8,31.5,30.29,NNW,338,0.0,2.0,53,0.00,,,0.00,meteobridge,2017-12-14 21:51:00,
2017-12-14 13:56:00,47.8,32.0,30.29,North,0,0.0,0.0,54,0.00,,,0.00,meteobridge,2017-12-14 21:56:00,
2017-12-14 14:01:00,47.5,31.6,30.29,East,90,1.1,2.0,54,0.00,,,0.00,meteobridge,2017-12-14 22:01:00,
2017-12-14 14:06:00,47.1,31.3,30.29,SSE,151,0.0,1.0,54,0.00,,,0.00,meteobridge,2017-12-14 22:06:00,
2017-12-14 14:11:00,47.1,31.8,30.29,SSE,149,1.1,1.1,55,0.00,,,0.00,meteobridge,2017-12-14 22:11:00,
2017-12-14 14:16:00,46.9,31.1,30.28,East,92,0.0,3.0,54,0.00,,,0.00,meteobridge,2017-12-14 22:16:00,
2017-12-14 14:21:00,46.6,30.7,30.28,ENE,68,0.0,5.0,54,0.00,,,0.00,meteobridge,2017-12-14 22:21:00,
2017-12-14 14:26:00,46.4,30.7,30.28,NE,45,0.0,4.0,54,0.00,,,0.00,meteobridge,2017-12-14 22:26:00,
2017-12-14 14:31:00,46.2,30.9,30.28,NE,48,0.0,4.0,55,0.00,,,0.00,meteobridge,2017-12-14 22:31:00,
2017-12-14 14:36:00,46.2,30.9,30.27,North,0,8.5,9.0,55,0.00,,,0.00,meteobridge,2017-12-14 22:36:00,
2017-12-14 14:41:00,46.0,30.7,30.27,North,6,4.3,7.0,55,0.00,,,0.00,meteobridge,2017-12-14 22:41:00,
2017-12-14 14:46:00,46.0,30.7,30.27,North,7,5.4,9.0,55,0.00,,,0.00,meteobridge,2017-12-14 22:46:00,
2017-12-14 14:51:00,45.9,30.6,30.27,NNE,18,7.4,10.0,55,0.00,,,0.00,meteobridge,2017-12-14 22:51:00,
2017-12-14 14:56:00,45.9,30.6,30.27,ENE,75,1.1,10.0,55,0.00,,,0.00,meteobridge,2017-12-14 22:56:00,
2017-12-14 15:01:00,45.5,30.2,30.28,SSW,200,0.0,5.0,55,0.00,,,0.00,meteobridge,2017-12-14 23:01:00,
2017-12-14 15:06:00,45.5,30.7,30.27,North,11,1.1,5.0,56,0.00,,,0.00,meteobridge,2017-12-14 23:06:00,
2017-12-14 15:11:00,45.3,30.6,30.27,South,182,1.1,1.1,56,0.00,,,0.00,meteobridge,2017-12-14 23:11:00,
2017-12-14 15:16:00,45.0,30.6,30.27,South,178,0.0,2.0,57,0.00,,,0.00,meteobridge,2017-12-14 23:16:00,
2017-12-14 15:21:00,44.8,30.6,30.27,South,178,0.0,3.0,57,0.00,,,0.00,meteobridge,2017-12-14 23:21:00,
2017-12-14 15:27:00,44.8,30.6,30.27,WSW,237,0.0,3.0,57,0.00,,,0.00,meteobridge,2017-12-14 23:27:00,
2017-12-14 15:32:00,44.6,30.7,30.27,East,100,1.1,1.1,58,0.00,,,0.00,meteobridge,2017-12-14 23:32:00,
2017-12-14 15:37:00,44.6,30.4,30.28,ESE,118,0.0,3.0,57,0.00,,,0.00,meteobridge,2017-12-14 23:37:00,
2017-12-14 15:42:00,44.6,30.4,30.28,SSE,155,0.0,3.0,57,0.00,,,0.00,meteobridge,2017-12-14 23:42:00,
2017-12-14 15:46:00,44.4,30.2,30.27,North,0,0.0,4.0,57,0.00,,,0.00,meteobridge,2017-12-14 23:46:00,
2017-12-14 15:51:00,44.4,30.6,30.28,South,188,0.0,2.0,58,0.00,,,0.00,meteobridge,2017-12-14 23:51:00,
2017-12-14 15:57:00,44.2,30.0,30.27,North,0,4.3,15.0,57,0.00,,,0.00,meteobridge,2017-12-14 23:57:00,
2017-12-14 16:02:00,44.2,30.0,30.27,North,0,1.1,11.0,57,0.00,,,0.00,meteobridge,2017-12-15 00:02:00,
2017-12-14 16:07:00,44.2,30.0,30.26,NNW,348,0.0,3.0,57,0.00,,,0.00,meteobridge,2017-12-15 00:07:00,
2017-12-14 16:12:00,44.1,30.2,30.27,North,355,2.0,9.0,58,0.00,,,0.00,meteobridge,2017-12-15 00:12:00,
2017-12-14 16:17:00,44.1,30.2,30.27,North,0,0.0,3.0,58,0.00,,,0.00,meteobridge,2017-12-15 00:17:00,
2017-12-14 16:22:00,43.9,30.0,30.27,North,358,5.4,7.0,58,0.00,,,0.00,meteobridge,2017-12-15 00:22:00,
2017-12-14 16:27:00,43.9,29.7,30.28,ENE,59,3.1,7.0,57,0.00,,,0.00,meteobridge,2017-12-15 00:27:00,
2017-12-14 16:32:00,43.9,29.7,30.29,North,0,0.0,4.0,57,0.00,,,0.00,meteobridge,2017-12-15 00:32:00,
2017-12-14 16:37:00,43.9,30.0,30.29,North,0,0.0,4.0,58,0.00,,,0.00,meteobridge,2017-12-15 00:37:00,
2017-12-14 16:42:00,43.7,29.8,30.29,East,86,0.0,2.0,58,0.00,,,0.00,meteobridge,2017-12-15 00:42:00,
2017-12-14 16:47:00,43.5,30.2,30.29,NE,39,0.0,0.0,59,0.00,,,0.00,meteobridge,2017-12-15 00:47:00,
2017-12-14 16:52:00,43.2,29.8,30.29,SW,223,0.0,3.0,59,0.00,,,0.00,meteobridge,2017-12-15 00:52:00,
2017-12-14 16:57:00,43.0,29.7,30.29,NE,39,2.0,3.0,59,0.00,,,0.00,meteobridge,2017-12-15 00:57:00,
2017-12-14 17:02:00,43.0,29.7,30.29,NE,49,1.1,2.0,59,0.00,,,0.00,meteobridge,2017-12-15 01:02:00,
2017-12-14 17:07:00,43.0,29.7,30.29,North,0,2.0,5.0,59,0.00,,,0.00,meteobridge,2017-12-15 01:07:00,
2017-12-14 17:12:00,42.8,29.5,30.29,NNE,17,0.0,7.0,59,0.00,,,0.00,meteobridge,2017-12-15 01:12:00,
2017-12-14 17:17:00,42.8,29.5,30.29,North,0,3.1,6.0,59,0.00,,,0.00,meteobridge,2017-12-15 01:17:00,
2017-12-14 17:22:00,42.6,29.3,30.29,NNE,28,2.0,5.0,59,0.00,,,0.00,meteobridge,2017-12-15 01:22:00,
2017-12-14 17:26:00,42.6,29.3,30.29,North,0,4.3,11.0,59,0.00,,,0.00,meteobridge,2017-12-15 01:26:00,
2017-12-14 17:31:00,42.4,29.5,30.28,North,0,2.0,5.0,60,0.00,,,0.00,meteobridge,2017-12-15 01:31:00,
2017-12-14 17:36:00,42.4,29.5,30.28,NNE,31,1.1,5.0,60,0.00,,,0.00,meteobridge,2017-12-15 01:36:00,
2017-12-14 17:41:00,42.3,29.3,30.28,North,350,3.1,5.0,60,0.00,,,0.00,meteobridge,2017-12-15 01:41:00,
2017-12-14 17:46:00,42.3,29.3,30.27,NNE,32,2.0,5.0,60,0.00,,,0.00,meteobridge,2017-12-15 01:46:00,
2017-12-14 17:51:00,42.1,29.1,30.28,NNE,23,2.0,6.0,60,0.00,,,0.00,meteobridge,2017-12-15 01:51:00,
2017-12-14 17:56:00,42.1,29.1,30.28,NNE,16,0.0,4.0,60,0.00,,,0.00,meteobridge,2017-12-15 01:56:00,
2017-12-14 18:01:00,42.1,29.1,30.28,NNE,17,3.1,10.0,60,0.00,,,0.00,meteobridge,2017-12-15 02:01:00,
2017-12-14 18:06:00,42.3,28.9,30.28,North,357,8.5,12.0,59,0.00,,,0.00,meteobridge,2017-12-15 02:06:00,
2017-12-14 18:11:00,42.3,28.9,30.28,NE,45,2.0,11.0,59,0.00,,,0.00,meteobridge,2017-12-15 02:11:00,
2017-12-14 18:16:00,42.3,28.9,30.28,North,4,4.3,11.0,59,0.00,,,0.00,meteobridge,2017-12-15 02:16:00,
2017-12-14 18:21:00,42.3,28.9,30.28,NNE,31,0.0,4.0,59,0.00,,,0.00,meteobridge,2017-12-15 02:21:00,
2017-12-14 18:26:00,42.1,29.1,30.29,North,357,2.0,6.0,60,0.00,,,0.00,meteobridge,2017-12-15 02:26:00,
2017-12-14 18:31:00,42.1,28.8,30.28,SSE,149,1.1,14.0,59,0.00,,,0.00,meteobridge,2017-12-15 02:31:00,
2017-12-14 18:36:00,41.9,28.6,30.28,North,1,2.0,5.0,59,0.00,,,0.00,meteobridge,2017-12-15 02:36:00,
2017-12-14 18:41:00,41.7,28.9,30.28,North,3,0.0,3.0,60,0.00,,,0.00,meteobridge,2017-12-15 02:41:00,
2017-12-14 18:47:00,41.5,28.8,30.28,NE,38,2.0,4.0,60,0.00,,,0.00,meteobridge,2017-12-15 02:47:00,
2017-12-14 18:52:00,41.5,28.8,30.28,North,0,1.1,6.0,60,0.00,,,0.00,meteobridge,2017-12-15 02:52:00,
2017-12-14 18:57:00,41.5,28.8,30.28,North,0,2.0,3.0,60,0.00,,,0.00,meteobridge,2017-12-15 02:57:00,
2017-12-14 19:02:00,41.4,28.9,30.28,North,4,1.1,6.0,61,0.00,,,0.00,meteobridge,2017-12-15 03:02:00,
2017-12-14 19:07:00,41.4,28.6,30.27,ENE,76,3.1,12.0,60,0.00,,,0.00,meteobridge,2017-12-15 03:07:00,
2017-12-14 19:13:00,41.2,28.8,30.27,North,0,2.0,4.0,61,0.00,,,0.00,meteobridge,2017-12-15 03:13:00,
2017-12-14 19:18:00,40.8,28.4,30.27,North,0,4.3,7.0,61,0.00,,,0.00,meteobridge,2017-12-15 03:18:00,
2017-12-14 19:23:00,40.8,28.4,30.27,North,0,3.1,10.0,61,0.00,,,0.00,meteobridge,2017-12-15 03:23:00,
2017-12-14 19:28:00,40.6,28.6,30.27,North,357,4.3,7.0,62,0.00,,,0.00,meteobridge,2017-12-15 03:28:00,
2017-12-14 19:33:00,40.5,28.4,30.26,NE,47,4.3,5.0,62,0.00,,,0.00,meteobridge,2017-12-15 03:33:00,
2017-12-14 19:38:00,40.3,28.2,30.27,North,0,6.3,6.3,62,0.00,,,0.00,meteobridge,2017-12-15 03:38:00,
2017-12-14 19:43:00,40.3,28.2,30.27,NNW,347,5.4,9.0,62,0.00,,,0.00,meteobridge,2017-12-15 03:43:00,
2017-12-14 19:48:00,40.1,28.0,30.26,North,0,0.0,4.0,62,0.00,,,0.00,meteobridge,2017-12-15 03:48:00,
2017-12-14 19:49:00,40.1,28.0,30.26,North,0,1.1,4.0,62,0.00,,,0.00,meteobridge,2017-12-15 03:49:00,
2017-12-14 19:54:00,39.9,28.0,30.26,North,0,0.0,4.0,62,0.00,,,0.00,meteobridge,2017-12-15 03:54:00,
2017-12-14 19:59:00,39.9,28.0,30.26,ENE,59,2.0,6.0,62,0.00,,,0.00,meteobridge,2017-12-15 03:59:00,
2017-12-14 20:05:00,39.9,28.0,30.26,NNE,13,1.1,4.0,62,0.00,,,0.00,meteobridge,2017-12-15 04:05:00,
2017-12-14 20:10:00,39.7,27.9,30.26,North,0,0.0,7.0,62,0.00,,,0.00,meteobridge,2017-12-15 04:10:00,
2017-12-14 20:15:00,39.7,27.9,30.25,NE,54,3.1,6.0,62,0.00,,,0.00,meteobridge,2017-12-15 04:15:00,
2017-12-14 20:20:00,39.7,28.2,30.26,ENE,71,3.1,6.0,63,0.00,,,0.00,meteobridge,2017-12-15 04:20:00,
2017-12-14 20:25:00,39.7,28.2,30.25,North,0,2.0,5.0,63,0.00,,,0.00,meteobridge,2017-12-15 04:25:00,
2017-12-14 20:30:00,39.7,28.2,30.26,East,80,0.0,5.0,63,0.00,,,0.00,meteobridge,2017-12-15 04:30:00,
2017-12-14 20:35:00,39.7,28.2,30.26,ENE,61,2.0,2.0,63,0.00,,,0.00,meteobridge,2017-12-15 04:35:00,
2017-12-14 20:40:00,39.7,28.2,30.26,North,0,2.0,9.0,63,0.00,,,0.00,meteobridge,2017-12-15 04:40:00,
2017-12-14 20:45:00,39.7,28.6,30.27,NE,35,1.1,6.0,64,0.00,,,0.00,meteobridge,2017-12-15 04:45:00,
2017-12-14 20:50:00,39.6,28.0,30.27,NNE,16,1.1,3.0,63,0.00,,,0.00,meteobridge,2017-12-15 04:50:00,
2017-12-14 20:55:00,39.6,28.0,30.27,North,0,2.0,5.0,63,0.00,,,0.00,meteobridge,2017-12-15 04:55:00,
2017-12-14 21:00:00,39.6,28.0,30.26,North,0,2.0,7.0,63,0.00,,,0.00,meteobridge,2017-12-15 05:00:00,
2017-12-14 21:05:00,39.6,28.0,30.25,ENE,61,2.0,6.0,63,0.00,,,0.00,meteobridge,2017-12-15 05:05:00,
2017-12-14 21:10:00,39.6,28.0,30.26,North,0,4.3,9.0,63,0.00,,,0.00,meteobridge,2017-12-15 05:10:00,
2017-12-14 21:15:00,39.6,28.0,30.25,North,0,5.4,5.4,63,0.00,,,0.00,meteobridge,2017-12-15 05:15:00,
2017-12-14 21:20:00,39.6,28.0,30.25,North,7,2.0,6.0,63,0.00,,,0.00,meteobridge,2017-12-15 05:20:00,
2017-12-14 21:25:00,39.4,27.9,30.24,North,0,4.3,11.0,63,0.00,,,0.00,meteobridge,2017-12-15 05:25:00,
2017-12-14 21:30:00,39.4,27.9,30.25,ENE,72,2.0,7.0,63,0.00,,,0.00,meteobridge,2017-12-15 05:30:00,
2017-12-14 21:31:00,39.4,27.9,30.25,North,354,1.1,7.0,63,0.00,,,0.00,meteobridge,2017-12-15 05:31:00,
2017-12-14 21:36:00,39.4,27.9,30.24,NE,39,4.3,7.0,63,0.00,,,0.00,meteobridge,2017-12-15 05:36:00,
2017-12-14 21:41:00,39.2,27.7,30.24,North,0,2.0,5.0,63,0.00,,,0.00,meteobridge,2017-12-15 05:41:00,
2017-12-14 21:46:00,39.2,27.7,30.24,North,0,1.1,13.0,63,0.00,,,0.00,meteobridge,2017-12-15 05:46:00,
2017-12-14 21:51:00,39.2,27.7,30.25,North,0,3.1,7.0,63,0.00,,,0.00,meteobridge,2017-12-15 05:51:00,
2017-12-14 21:52:00,39.2,27.7,30.25,ENE,69,4.3,7.0,63,0.00,,,0.00,meteobridge,2017-12-15 05:52:00,
2017-12-14 21:57:00,39.2,27.7,30.26,North,7,1.1,6.0,63,0.00,,,0.00,meteobridge,2017-12-15 05:57:00,
2017-12-14 22:02:00,39.2,27.7,30.25,North,0,5.4,6.0,63,0.00,,,0.00,meteobridge,2017-12-15 06:02:00,
2017-12-14 22:07:00,39.2,27.7,30.25,North,0,3.1,10.0,63,0.00,,,0.00,meteobridge,2017-12-15 06:07:00,
2017-12-14 22:12:00,39.2,27.7,30.26,NNE,18,3.1,4.0,63,0.00,,,0.00,meteobridge,2017-12-15 06:12:00,
2017-12-14 22:17:00,39.0,27.5,30.26,North,3,2.0,7.0,63,0.00,,,0.00,meteobridge,2017-12-15 06:17:00,
2017-12-14 22:22:00,39.0,27.5,30.26,North,3,1.1,4.0,63,0.00,,,0.00,meteobridge,2017-12-15 06:22:00,
2017-12-14 22:27:00,39.0,27.9,30.27,North,3,0.0,2.0,64,0.00,,,0.00,meteobridge,2017-12-15 06:27:00,
2017-12-14 22:32:00,39.0,27.5,30.26,North,358,1.1,4.0,63,0.00,,,0.00,meteobridge,2017-12-15 06:32:00,
2017-12-14 22:37:00,39.2,27.7,30.26,North,358,0.0,4.0,63,0.00,,,0.00,meteobridge,2017-12-15 06:37:00,
2017-12-14 22:42:00,39.2,27.7,30.27,North,358,1.1,3.0,63,0.00,,,0.00,meteobridge,2017-12-15 06:42:00,
2017-12-14 22:47:00,39.2,27.7,30.27,North,358,1.1,3.0,63,0.00,,,0.00,meteobridge,2017-12-15 06:47:00,
2017-12-14 22:52:00,39.0,27.9,30.27,North,358,0.0,3.0,64,0.00,,,0.00,meteobridge,2017-12-15 06:52:00,
2017-12-14 22:57:00,39.0,27.5,30.26,North,358,0.0,2.0,63,0.00,,,0.00,meteobridge,2017-12-15 06:57:00,
2017-12-14 23:02:00,39.0,27.5,30.27,North,358,3.1,4.0,63,0.00,,,0.00,meteobridge,2017-12-15 07:02:00,
2017-12-14 23:07:00,39.0,27.5,30.27,ENE,63,0.0,5.0,63,0.00,,,0.00,meteobridge,2017-12-15 07:07:00,
2017-12-14 23:12:00,38.8,27.7,30.27,ENE,63,1.1,1.1,64,0.00,,,0.00,meteobridge,2017-12-15 07:12:00,
2017-12-14 23:17:00,38.7,27.5,30.26,NW,312,2.0,3.0,64,0.00,,,0.00,meteobridge,2017-12-15 07:17:00,
2017-12-14 23:22:00,38.7,27.5,30.27,NNW,348,1.1,4.0,64,0.00,,,0.00,meteobridge,2017-12-15 07:22:00,
2017-12-14 23:27:00,38.5,27.3,30.27,NNW,348,0.0,0.0,64,0.00,,,0.00,meteobridge,2017-12-15 07:27:00,
2017-12-14 23:28:00,38.5,27.3,30.27,NNW,348,0.0,0.0,64,0.00,,,0.00,meteobridge,2017-12-15 07:28:00,